Terminal Aerodrome Forecast
Issued by NWS Kansas City/Pleasant Hill, MO

Home | Current Version | Previous Version | Text Only | Print | Product List | Glossary On
Versions: 1 2 3 4 5 6 7 8 9 10 11 12 13 14 15 16 17 18 19 20 21 22
000
FTUS43 KEAX 300520
TAFMCI
TAF
KMCI 300520Z 3006/0106 08017G24KT P6SM -SHRA OVC007
     FM301000 08012KT 5SM BR VCSH OVC007
      TEMPO 3012/3016 4SM BR OVC003
     FM301900 25009KT P6SM OVC015
     FM302100 32008KT P6SM OVC025=

USA.gov is the U.S. government's official web portal to all federal, state and local government web resources and services.